EW7912 Weather Reports


time (UTC)temp
F
wind
direction
speed
knots
gust
knots
rain 1hr
in
rain 24hr
in
rain mn
in
humidity
%
barometer
mb
20260505122105 71 232 3.5 8.7 0.00 0.00 0.00 88 1007.3
20260505121559 70 248 2.6 8.7 0.00 0.00 0.00 88 1007.3
20260505121053 70 228 2.6 8.7 0.00 0.00 0.00 88 1007.3
20260505120547 70 205 2.6 8.7 0.00 0.00 0.00 88 1007.2
20260505120056 70 225 1.7 7.8 0.00 0.00 0.00 88 1007.0
20260505115543 70 269 1.7 5.2 0.00 0.00 0.00 88 1006.8
20260505115043 70 213 2.6 7.0 0.00 0.00 0.00 88 1006.8
20260505114542 70 236 2.6 7.0 0.00 0.00 0.00 88 1006.9
20260505114308 70 207 1.7 7.0 0.00 0.00 0.00 88 1006.8
20260505113541 70 209 2.6 7.8 0.00 0.00 0.00 88 1006.8
20260505113041 70 238 3.5 8.7 0.00 0.00 0.00 88 1006.9
20260505112542 70 211 2.6 8.7 0.00 0.00 0.00 88 1006.9
20260505112041 70 225 1.7 7.0 0.00 0.00 0.00 88 1007.0
20260505111539 70 231 1.7 7.0 0.00 0.00 0.00 88 1007.0
20260505111039 70 216 1.7 7.0 0.00 0.00 0.00 88 1007.0
20260505110537 70 263 2.6 7.0 0.00 0.00 0.00 88 1007.0
20260505101955 69 259 2.6 8.7 0.00 0.00 0.00 88 1006.7
20260505101445 69 238 2.6 8.7 0.00 0.00 0.00 88 1006.8
20260505100456 69 213 2.6 10.4 0.00 0.00 0.00 88 1006.8
20260505095950 69 199 2.6 10.4 0.00 0.00 0.00 88 1006.7
20260505095444 69 233 2.6 11.3 0.00 0.00 0.00 88 1006.8
20260505094938 69 257 2.6 11.3 0.00 0.00 0.00 88 1006.7
20260505094434 69 309 2.6 11.3 0.00 0.00 0.00 88 1006.6
20260505093926 69 202 2.6 11.3 0.00 0.00 0.00 88 1006.6
20260505093423 69 223 1.7 7.0 0.00 0.00 0.00 88 1006.7
20260505092914 68 207 1.7 7.0 0.00 0.00 0.00 88 1006.7
20260505092408 68 273 2.6 7.0 0.00 0.00 0.00 88 1006.8
20260505091902 68 219 2.6 12.2 0.00 0.00 0.00 88 1006.8
20260505091852 68 221 2.6 8.7 0.00 0.00 0.00 88 1006.9
20260505090850 68 56 2.6 8.7 0.00 0.00 0.00 88 1007.0
20260505090344 68 279 2.6 8.7 0.00 0.00 0.00 88 1007.2
20260505085838 68 288 1.7 8.7 0.00 0.00 0.00 88 1007.1
20260505085333 68 143 1.7 5.2 0.00 0.00 0.00 88 1007.2
20260505084827 68 216 1.7 7.8 0.00 0.00 0.00 88 1007.3
20260505084320 68 133 1.7 7.8 0.00 0.00 0.00 88 1007.3
20260505084034 68 184 1.7 7.8 0.00 0.00 0.00 87 1007.5
20260505083308 68 192 1.7 8.7 0.00 0.00 0.00 87 1007.5
20260505082802 68 180 1.7 8.7 0.00 0.00 0.00 87 1007.5
20260505082519 68 34 1.7 6.1 0.00 0.00 0.00 87 1007.5
20260505081750 68 207 1.7 6.1 0.00 0.00 0.00 87 1007.6
20260505081244 68 238 1.7 4.3 0.00 0.00 0.00 87 1007.6
20260505080737 68 211 1.7 5.2 0.00 0.00 0.00 87 1007.7
20260505080232 68 242 1.7 5.2 0.00 0.00 0.00 87 1007.6
20260505075726 68 215 1.7 6.1 0.00 0.00 0.00 87 1007.7
20260505075220 68 179 0.9 6.1 0.00 0.00 0.00 87 1007.7
20260505074714 68 235 1.7 4.3 0.00 0.00 0.00 86 1007.8
20260505074207 68 269 1.7 4.3 0.00 0.00 0.00 86 1007.8
20260505073933 68 234 1.7 6.1 0.00 0.00 0.00 86 1007.9
20260505073158 68 204 1.7 6.1 0.00 0.00 0.00 86 1008.0
20260505072650 68 218 1.7 5.2 0.00 0.00 0.00 86 1008.0
20260505072144 68 171 1.7 5.2 0.00 0.00 0.00 86 1008.0
20260505071638 68 193 1.7 4.3 0.00 0.00 0.00 86 1008.0
20260505071132 68 196 1.7 6.1 0.00 0.00 0.00 85 1008.0
20260505070626 69 243 2.6 6.1 0.00 0.00 0.00 85 1008.1
20260505070119 69 202 1.7 6.1 0.00 0.00 0.00 85 1008.1
20260505065614 69 223 0.9 4.3 0.00 0.00 0.00 85 1008.0
20260505065115 69 192 1.7 7.0 0.00 0.00 0.00 85 1008.0
20260505064615 69 355 1.7 7.0 0.00 0.00 0.00 85 1008.1
20260505064113 69 222 1.7 6.1 0.00 0.00 0.00 84 1008.3
20260505063611 69 244 1.7 6.1 0.00 0.00 0.00 84 1008.5
20260505063112 69 246 1.7 4.3 0.00 0.00 0.00 84 1008.6
20260505062840 69 212 1.7 8.7 0.00 0.00 0.00 84 1008.6
20260505062334 69 192 1.7 8.7 0.00 0.00 0.00 84 1008.6
20260505061611 69 219 1.7 5.2 0.00 0.00 0.00 84 1008.7
20260505061109 69 253 1.7 5.2 0.00 0.00 0.00 83 1008.6
20260505060609 69 200 1.7 5.2 0.00 0.00 0.00 83 1008.6
20260505060122 69 265 0.9 4.3 0.00 0.00 0.00 83 1008.5
20260505055609 69 140 0.9 3.5 0.00 0.00 0.00 83 1008.5
20260505055109 69 163 0.9 3.5 0.00 0.00 0.00 82 1008.6
20260505054607 70 234 0.9 3.5 0.00 0.00 0.00 82 1008.5
20260505054338 70 235 0.9 3.5 0.00 0.00 0.00 82 1008.7
20260505053607 70 135 0.9 5.2 0.00 0.00 0.00 82 1008.9
20260505053105 70 196 0.9 5.2 0.00 0.00 0.00 82 1008.9
20260505052605 70 221 0.9 6.1 0.00 0.00 0.00 81 1008.8
20260505052058 70 217 1.7 6.1 0.00 0.00 0.00 81 1008.7
20260505051817 70 213 1.7 6.1 0.00 0.00 0.00 81 1008.7
20260505051047 70 173 1.7 6.1 0.00 0.00 0.00 81 1008.9
20260505050541 70 196 0.9 5.2 0.00 0.00 0.00 81 1008.9
20260505041509 72 201 1.7 7.0 0.00 0.00 0.00 78 1008.7
20260505041229 72 180 0.9 3.5 0.00 0.00 0.00 78 1008.7
20260505040739 72 315 1.7 7.0 0.00 0.00 0.00 78 1008.8
20260505040006 72 204 2.6 8.7 0.00 0.00 0.00 78 1008.9
20260505035505 72 213 2.6 8.7 0.00 0.00 0.00 78 1009.1
20260505035006 72 242 1.7 6.1 0.00 0.00 0.00 77 1009.1
20260505034504 72 197 1.7 6.1 0.00 0.00 0.00 77 1009.0
20260505034003 72 168 1.7 5.2 0.00 0.00 0.00 77 1009.1
20260505033503 72 245 0.9 2.6 0.00 0.00 0.00 77 1009.0
20260505033004 72 80 0.9 3.5 0.00 0.00 0.00 76 1008.9
20260505032503 72 211 1.7 4.3 0.00 0.00 0.00 76 1008.7
20260505032001 72 266 1.7 4.3 0.00 0.00 0.00 76 1008.8
20260505031501 72 190 1.7 8.7 0.00 0.00 0.00 75 1008.6
20260505030959 73 109 1.7 8.7 0.00 0.00 0.00 75 1008.6
20260505030459 73 207 0.9 4.3 0.00 0.00 0.00 75 1008.5
20260505025959 73 189 0.9 6.1 0.00 0.00 0.00 75 1008.6
20260505025458 73 213 0.9 6.1 0.00 0.00 0.00 75 1008.6
20260505025220 73 202 1.7 5.2 0.00 0.00 0.00 74 1008.5
20260505024459 73 104 0.9 5.2 0.00 0.00 0.00 74 1008.5
20260505023959 73 236 0.9 5.2 0.00 0.00 0.00 73 1008.4
20260505023459 73 143 0.0 0.9 0.00 0.00 0.00 73 1008.5
20260505022955 73 337 0.0 0.9 0.00 0.00 0.00 72 1008.7
20260505022712 73 64 0.0 0.0 0.00 0.00 0.00 72 1008.6
20260505021954 73 139 0.0 0.0 0.00 0.00 0.00 71 1008.7
20260505021455 73 112 0.0 0.0 0.00 0.00 0.00 71 1008.7
20260505020955 73 130 0.0 0.0 0.00 0.00 0.00 71 1008.6
20260505020454 74 129 0.0 0.0 0.00 0.00 0.00 70 1008.6
20260505020220 74 129 0.0 0.0 0.00 0.00 0.00 70 1008.5
20260505015455 74 130 0.0 0.0 0.00 0.00 0.00 70 1008.5
20260505014955 74 130 0.0 0.0 0.00 0.00 0.00 69 1008.4
20260505014725 74 132 0.0 0.9 0.00 0.00 0.00 68 1008.4
20260505013954 75 270 0.0 0.9 0.00 0.00 0.00 68 1008.5
20260505013454 75 270 0.0 1.7 0.00 0.00 0.00 68 1008.3
20260505012954 75 269 0.0 1.7 0.00 0.00 0.00 67 1008.4
20260505012717 76 141 0.0 1.7 0.00 0.00 0.00 67 1008.3
20260505011955 76 124 0.0 1.7 0.00 0.00 0.00 66 1008.3
20260505011455 76 124 0.0 1.7 0.00 0.00 0.00 66 1008.2
20260505010955 76 133 0.0 1.7 0.00 0.00 0.00 65 1008.4
20260505010452 77 148 0.9 4.3 0.00 0.00 0.00 64 1008.4
20260505005946 77 148 0.9 4.3 0.00 0.00 0.00 64 1008.2
20260505005709 77 275 0.9 3.5 0.00 0.00 0.00 64 1008.3
20260505004934 77 202 0.9 3.5 0.00 0.00 0.00 63 1008.3
20260505004428 77 179 1.7 4.3 0.00 0.00 0.00 63 1008.2
20260505003921 78 219 1.7 4.3 0.00 0.00 0.00 63 1008.3
20260505003416 78 216 1.7 4.3 0.00 0.00 0.00 62 1008.2
20260505002910 78 250 0.9 3.5 0.00 0.00 0.00 62 1008.3
20260505002404 78 79 0.9 3.5 0.00 0.00 0.00 62 1008.2
20260505001858 78 246 0.9 3.5 0.00 0.00 0.00 61 1008.1
20260505001402 79 217 0.9 3.5 0.00 0.00 0.00 61 1008.2
20260505001107 79 224 0.9 5.2 0.00 0.00 0.00 60 1008.3
20260505000339 79 227 1.7 5.2 0.00 0.00 0.00 60 1008.4
20260504235834 79 44 0.9 3.5 0.00 0.00 0.00 60 1008.5
20260504235328 80 190 1.7 7.0 0.00 0.00 0.00 59 1008.5
20260504234822 80 221 2.6 7.0 0.00 0.00 0.00 58 1008.7
20260504234315 80 216 3.5 7.8 0.00 0.00 0.00 58 1008.8
20260504233810 80 232 2.6 7.8 0.00 0.00 0.00 57 1008.9
20260504233304 80 182 2.6 6.1 0.00 0.00 0.00 57 1009.0
20260504232758 80 196 2.6 7.0 0.00 0.00 0.00 57 1009.0
20260504232252 80 113 2.6 7.0 0.00 0.00 0.00 57 1008.9
20260504232002 80 220 2.6 6.1 0.00 0.00 0.00 58 1008.9
20260504231240 81 246 2.6 7.8 0.00 0.00 0.00 58 1008.9
20260504230735 81 223 2.6 7.8 0.00 0.00 0.00 58 1008.9
20260504230227 81 198 2.6 7.0 0.00 0.00 0.00 57 1009.0
20260504225721 81 247 2.6 7.8 0.00 0.00 0.00 57 1009.0
20260504225216 81 242 2.6 7.8 0.00 0.00 0.00 56 1009.0
20260504224711 81 201 1.7 6.1 0.00 0.00 0.00 57 1009.2
20260504224204 81 207 1.7 5.2 0.00 0.00 0.00 56 1009.1
20260504223658 82 85 1.7 6.1 0.00 0.00 0.00 57 1009.1
20260504223151 82 206 1.7 7.0 0.00 0.00 0.00 55 1009.2
20260504222912 82 205 2.6 7.0 0.00 0.00 0.00 56 1009.2
20260504222139 82 201 2.6 7.0 0.00 0.00 0.00 55 1009.3
20260504221633 82 290 2.6 7.0 0.00 0.00 0.00 54 1009.4
20260504221349 82 227 1.7 9.6 0.00 0.00 0.00 55 1009.4
20260504220848 82 238 2.6 9.6 0.00 0.00 0.00 55 1009.5
20260504220118 82 355 2.6 7.0 0.00 0.00 0.00 55 1009.5
20260504215832 82 288 2.6 7.8 0.00 0.00 0.00 56 1009.6
20260504215320 82 279 2.6 7.8 0.00 0.00 0.00 55 1009.8
20260504214558 81 69 2.6 7.0 0.00 0.00 0.00 55 1009.9
20260504214052 81 251 2.6 7.0 0.00 0.00 0.00 55 1010.0
20260504213546 81 201 2.6 8.7 0.00 0.00 0.00 55 1010.1
20260504213042 81 184 2.6 8.7 0.00 0.00 0.00 54 1010.2
20260504212540 81 157 2.6 7.8 0.00 0.00 0.00 54 1010.4
20260504212301 81 180 3.5 7.8 0.00 0.00 0.00 54 1010.3
20260504211538 81 180 2.6 7.8 0.00 0.00 0.00 52 1010.5
20260504211038 81 198 2.6 8.7 0.00 0.00 0.00 53 1010.6
20260504210538 81 184 2.6 8.7 0.00 0.00 0.00 53 1010.7
20260504210038 81 257 1.7 6.1 0.00 0.00 0.00 52 1010.8
20260504205537 81 213 2.6 7.0 0.00 0.00 0.00 51 1010.8
20260504205036 82 241 1.7 7.0 0.00 0.00 0.00 51 1010.9
20260504204536 82 209 1.7 7.8 0.00 0.00 0.00 52 1011.1
20260504204036 82 217 2.6 7.8 0.00 0.00 0.00 50 1011.0
20260504203536 82 57 2.6 8.7 0.00 0.00 0.00 50 1011.0
20260504203036 82 68 3.5 8.7 0.00 0.00 0.00 50 1011.3
20260504202536 82 234 3.5 8.7 0.00 0.00 0.00 51 1011.4
20260504202036 82 194 2.6 8.7 0.00 0.00 0.00 50 1011.2
20260504201538 82 206 2.6 7.8 0.00 0.00 0.00 52 1011.4
20260504201038 82 177 2.6 7.8 0.00 0.00 0.00 49 1011.5
20260504200537 82 111 2.6 7.0 0.00 0.00 0.00 49 1011.7
20260504200252 82 200 2.6 7.8 0.00 0.00 0.00 51 1012.0
20260504195525 82 194 2.6 7.8 0.00 0.00 0.00 50 1011.9
20260504195019 82 190 2.6 7.8 0.00 0.00 0.00 52 1012.0
20260504194738 82 172 3.5 8.7 0.00 0.00 0.00 50 1012.1
20260504194225 82 146 2.6 8.7 0.00 0.00 0.00 51 1012.2
20260504193502 81 219 2.6 8.7 0.00 0.00 0.00 52 1012.3
20260504192955 81 206 2.6 7.0 0.00 0.00 0.00 51 1012.4
20260504192449 81 247 2.6 7.8 0.00 0.00 0.00 51 1012.5
20260504191944 81 194 3.5 9.6 0.00 0.00 0.00 51 1012.5
20260504191438 81 222 2.6 11.3 0.00 0.00 0.00 50 1012.6
20260504191152 81 266 3.5 11.3 0.00 0.00 0.00 51 1012.7
20260504190425 80 307 3.5 8.7 0.00 0.00 0.00 51 1012.7
20260504185919 81 190 3.5 10.4 0.00 0.00 0.00 50 1012.8
20260504185413 81 190 3.5 10.4 0.00 0.00 0.00 52 1012.6
20260504184907 81 232 2.6 7.8 0.00 0.00 0.00 51 1012.7
20260504184625 80 286 2.6 8.7 0.00 0.00 0.00 52 1012.8
20260504183855 80 267 2.6 8.7 0.00 0.00 0.00 54 1013.0
20260504183349 80 208 2.6 7.0 0.00 0.00 0.00 53 1013.1
20260504182843 80 184 3.5 9.6 0.00 0.00 0.00 51 1013.2
20260504182557 80 288 2.6 9.6 0.00 0.00 0.00 52 1013.3
20260504181832 80 159 2.6 9.6 0.00 0.00 0.00 52 1013.4
20260504181544 80 182 2.6 8.7 0.00 0.00 0.00 51 1013.4
20260504180820 79 135 2.6 7.8 0.00 0.00 0.00 53 1013.3
20260504180314 79 215 2.6 8.7 0.00 0.00 0.00 52 1013.3
20260504175814 80 178 2.6 8.7 0.00 0.00 0.00 53 1013.4
20260504175314 79 98 2.6 7.8 0.00 0.00 0.00 53 1013.4
20260504174813 79 186 2.6 7.8 0.00 0.00 0.00 53 1013.4
20260504174310 79 190 2.6 7.8 0.00 0.00 0.00 53 1013.6
20260504173810 79 295 2.6 7.8 0.00 0.00 0.00 52 1013.8
20260504173310 78 213 2.6 8.7 0.00 0.00 0.00 53 1014.0
20260504172808 78 194 3.5 8.7 0.00 0.00 0.00 53 1014.0
20260504172308 78 198 2.6 6.1 0.00 0.00 0.00 55 1014.1
20260504171808 77 197 3.5 9.6 0.00 0.00 0.00 52 1014.2
20260504171308 77 197 3.5 10.4 0.00 0.00 0.00 53 1014.1
20260504170808 76 300 3.5 10.4 0.00 0.00 0.00 54 1014.0
20260504170308 76 184 3.5 8.7 0.00 0.00 0.00 56 1014.1
20260504160240 74 257 2.6 12.2 0.00 0.00 0.00 60 1015.0
20260504150727 71 220 3.5 7.8 0.00 0.00 0.00 64 1015.5
20260504150228 71 255 3.5 10.4 0.00 0.00 0.00 64 1015.7
20260504141228 67 274 2.6 8.7 0.00 0.00 0.00 70 1015.5
20260504140727 67 228 2.6 8.7 0.00 0.00 0.00 71 1015.4
20260504140227 67 159 2.6 7.0 0.00 0.00 0.00 72 1015.6
20260504130724 61 217 1.7 4.3 0.00 0.00 0.00 79 1015.5
20260504130448 60 203 1.7 4.3 0.00 0.00 0.00 79 1015.7